Starlink 5691

operational
NORAD ID: 55478 Int'l Des: 2023-015 Owner: SPXS Country: US Constellation: starlink
LEOCIRCULAR

Über Starlink 5691

Beschreibung wird geladen...

Live-Position

3D-Globus wird geladen...

Nächste Überflüge

Höhenverlauf

Altitude vs Time

uPlot chart will show altitude changes over time

Zweizeiliger Elementsatz

1 55478U 23015AF 26063.14261501 .00000704 00000-0 67153-4 0 9994
2 55478 43.0062 343.6327 0001313 272.9992 87.0700 15.02535784170068
Epoch: 4. März 2026 • Age: 16 hours

Aktueller Status

Höhe 560.3 km
Geschwindigkeit 7.58 km/s
Subsatellitenpunkt -9.67°S, 74°W
Startdatum 2. Feb. 2023
Alter 3 years
Typ internet

Technische Details

Klassifizierung Payload
Masse 305.00 kg
Trockenmasse 290.00 kg
Gesamtmasse 305.00 kg
Länge 0.20 m
Durchmesser 2.80 m
Spannweite 9.00 m
Form Box + pan
Hersteller SPXS
Bus-Typ Starlink
Phasenstatus In Orbit
Besitzer/Staat SPXS/US

Große Konstellationen

Loading constellations...